Location: Cardiff
(53.7833°N, 113.6000°W)
Time: 05:20:44
(UTC+00:00)

SO-50 - Pass Details

Date: 10 December 2023
Orbit: 608 x 660 km, 64.6° (Epoch: 02 March)

Event Time Altitude Azimuth Distance (km) Brightness Sun altitude
Exits shadow 13:16:07 22° 344° (NNW) 1,394 ? -19.9°
Maximum altitude 13:16:28 23° 351° (N) 1,386 ? -19.8°
Drops below altitude 10° 13:20:07 10° 43° (NE) 2,027 ? -19.3°
Sets 13:22:49 0° 59° (ENE) 2,925 ? -18.9°
